Location: ??????
(36.0418°N, 43.6351°E)
Time: 04:08:50
(UTC+00:00)

H-2A R/B - Pass Details

Date: 07 March 2021
Orbit: 501 x 538 km, 97.3° (Epoch: 12 March)

Event Time Altitude Azimuth Distance (km) Brightness Sun altitude
Rises 02:48:05 0° 5° (N) 2,698 6.4 -8.8°
Reaches altitude 10° 02:50:15 10° 360° (N) 1,801 5.5 -8.4°
Maximum altitude 02:54:01 50° 285° (WNW) 692 2.9 -7.6°
Drops below altitude 10° 02:57:45 10° 210° (SSW) 1,779 5.1 -6.9°
Sets 02:59:52 0° 204° (SSW) 2,660 6.1 -6.4°
